Find Starlink 35092

NORAD ID: 65342 Int'l Des: 2025-189 Owner: SPXS Country: US Constellation: starlink operational
LEOCIRCULAR

現在のビュー

3D地球を読み込み中...

About Starlink 35092

Starlink 35092 (NORAD 65342) is a starlink constellation satellite (v2 mini) launched Aug 27, 2025 by SPXS of US. It operates in LEO, CIRCULAR orbit with a mass of 575.00 kg.

次回通過

Passes for default location (London). Set your location on the main map for personalized predictions.

高度履歴

Loading altitude history...

軌道要素

1 65342U 25189V 26264.05731895 .00007716 00000-0 26004-3 0 9999
2 65342 53.1592 17.4908 0001018 86.4831 273.6287 15.31714469 60952
Epoch: Sep 21, 2026 • Age: 14 hours

現在のステータス

高度 476.5 km
遠地点 / 近地点 N/A
速度 7.63 km/s
衛星直下点 53.30°N, 131.91°W
打ち上げ日 Aug 27, 2025
運用期間 1 year
タイプ internet

技術仕様

分類 Payload
質量 575.00 kg
乾燥質量 530.00 kg
長さ 0.30 m
スパン 29.00 m
形状 ? Box + pan
製造者 SPXS
バスタイプ Starlink V2MO
フェーズステータス In Orbit
所有者/国 SPXS/US

Most Searched